Location: Dana
(41.8364°N, 106.7042°W)
Time: 02:44:32
(UTC+00:00)

Transit 4A - Pass Details

Date: 11 May 2026
Orbit: 860 x 980 km, 66.8° (Epoch: 6 June)

Event Time Altitude Azimuth Distance (km) Brightness Sun altitude
Rises 01:38:56 0° 324° (NW) 3,688 12.0 5.4°
Reaches altitude 10° 01:41:35 10° 320° (NW) 2,738 11.6 5.0°
Maximum altitude 01:47:42 48° 248° (WSW) 1,252 9.2 3.9°
Drops below altitude 10° 01:53:44 10° 175° (S) 2,696 10.1 2.8°
Sets 01:56:20 0° 170° (S) 3,626 10.7 2.4°
